Location: Ferintosh
(52.7647°N, 112.9692°W)
Time: 22:45:07
(UTC+00:00)

A-11 Canister half - Pass Details

Date: 20 May 2024
Orbit: 1524 x 1683 km, 47.3° (Epoch: 19 June)

Event Time Altitude Azimuth Distance (km) Brightness Sun altitude
Rises 09:49:41 0° 277° (W) 4,770 11.3 -10.9°
Reaches altitude 10° 09:52:49 10° 273° (W) 3,805 10.8 -10.7°
Maximum altitude 10:02:08 54° 200° (SSW) 1,917 9.2 -9.9°
Drops below altitude 10° 10:11:44 10° 127° (SE) 3,913 11.2 -9.0°
Sets 10:15:00 0° 123° (ESE) 4,913 11.7 -8.7°
